Location: Unspecified
(48.2082°N, 0.0000°E)
Time: 19:08:26
(UTC+00:00)

Tiros 1 despin weight - Pass Details

Date: 24 June 2019
Orbit: 594 x 642 km, 48.2° (Epoch: 16 July)

Event Time Altitude Azimuth Distance (km) Brightness Sun altitude
Rises 00:16:10 0° 255° (WSW) 2,847 - -18.3°
Exits shadow 00:16:49 - 255° (WSW) 2,591 ? -18.3°
Reaches altitude 10° 00:18:28 10° 255° (WSW) 1,939 ? -18.3°
Maximum altitude 00:22:55 80° 168° (SSE) 609 ? -18.2°
Drops below altitude 10° 00:27:20 10° 82° (E) 1,928 ? -18.2°
Sets 00:29:37 0° 82° (E) 2,830 ? -18.1°
